| time (UTC) | temp C | wind direction | speed KPH | gust KPH | rain 1hr cm | rain 24hr cm | rain mn cm | humidity % | barometer mb |
| 20260503185015 | 28 | 2 | 1.6 | 6.4 | 0.00 | 0.03 | 0.00 | 40 | 1004.4 |
| 20260503184117 | 27 | 7 | 1.6 | 6.4 | 0.00 | 0.03 | 0.00 | 41 | 1004.5 |
| 20260503183016 | 27 | 346 | 1.6 | 8.0 | 0.00 | 0.03 | 0.00 | 42 | 1004.7 |
| 20260503182037 | 26 | 12 | 1.6 | 4.8 | 0.00 | 0.05 | 0.00 | 44 | 1004.7 |
| 20260503181016 | 26 | 337 | 3.2 | 9.7 | 0.00 | 0.08 | 0.00 | 44 | 1004.7 |
| 20260503180037 | 26 | 352 | 1.6 | 8.0 | 0.00 | 0.08 | 0.00 | 46 | 1004.7 |
| 20260503175017 | 25 | 337 | 1.6 | 8.0 | 0.00 | 0.08 | 0.00 | 46 | 1004.8 |
| 20260503174016 | 25 | 344 | 1.6 | 6.4 | 0.00 | 0.08 | 0.00 | 47 | 1004.9 |
| 20260503173016 | 25 | 351 | 1.6 | 8.0 | 0.00 | 0.08 | 0.00 | 49 | 1005.1 |
| 20260503172015 | 24 | 1 | 1.6 | 6.4 | 0.00 | 0.08 | 0.00 | 51 | 1005.1 |
| 20260503171016 | 23 | 356 | 1.6 | 6.4 | 0.00 | 0.08 | 0.00 | 53 | 1005.1 |
| 20260503131016 | 11 | 0.0 | 0.0 | 0.00 | 0.08 | 0.00 | 96 | 1005.4 | |
| 20260503081016 | 13 | 0.0 | 0.0 | 0.00 | 0.08 | 0.00 | 89 | 1006.2 | |
| 20260503072016 | 14 | 0.0 | 0.0 | 0.00 | 0.08 | 0.00 | 87 | 1006.3 | |
| 20260503071016 | 14 | 0.0 | 0.0 | 0.00 | 0.08 | 0.00 | 87 | 1006.4 | |
| 20260503055016 | 15 | 0.0 | 0.0 | 0.00 | 0.08 | 0.08 | 85 | 1006.4 | |
| 20260503054016 | 15 | 0.0 | 0.0 | 0.00 | 0.08 | 0.08 | 84 | 1006.4 | |
| 20260503053016 | 15 | 270 | 0.0 | 1.6 | 0.00 | 0.08 | 0.08 | 84 | 1006.4 |
| 20260503052016 | 15 | 0.0 | 0.0 | 0.00 | 0.08 | 0.08 | 83 | 1006.4 | |
| 20260503051016 | 15 | 0.0 | 0.0 | 0.00 | 0.08 | 0.08 | 82 | 1006.3 | |
| 20260503050016 | 15 | 0.0 | 0.0 | 0.00 | 0.08 | 0.08 | 82 | 1006.2 | |
| 20260503045036 | 15 | 0.0 | 0.0 | 0.00 | 0.08 | 0.08 | 81 | 1006.4 | |
| 20260503044016 | 15 | 0.0 | 0.0 | 0.00 | 0.08 | 0.08 | 81 | 1006.1 | |
| 20260503043016 | 15 | 0.0 | 0.0 | 0.00 | 0.08 | 0.08 | 81 | 1006.1 | |
| 20260503042036 | 16 | 0.0 | 0.0 | 0.00 | 0.08 | 0.08 | 81 | 1006.1 | |
| 20260503041016 | 16 | 0.0 | 0.0 | 0.00 | 0.08 | 0.08 | 79 | 1006.1 | |
| 20260503040036 | 16 | 0.0 | 0.0 | 0.00 | 0.08 | 0.08 | 78 | 1006.1 | |
| 20260503035017 | 16 | 0.0 | 0.0 | 0.00 | 0.08 | 0.08 | 77 | 1006.1 | |
| 20260503034016 | 16 | 0.0 | 0.0 | 0.00 | 0.08 | 0.08 | 76 | 1005.9 | |
| 20260503033016 | 17 | 0.0 | 0.0 | 0.00 | 0.08 | 0.08 | 76 | 1005.7 | |
| 20260503032017 | 17 | 0.0 | 0.0 | 0.00 | 0.08 | 0.08 | 75 | 1005.7 | |
| 20260503031016 | 17 | 0.0 | 0.0 | 0.00 | 0.08 | 0.08 | 75 | 1005.5 | |
| 20260503030015 | 17 | 0.0 | 0.0 | 0.00 | 0.08 | 0.08 | 75 | 1005.4 | |
| 20260503025016 | 17 | 0.0 | 0.0 | 0.00 | 0.08 | 0.08 | 74 | 1005.6 | |
| 20260503024015 | 17 | 0.0 | 0.0 | 0.00 | 0.08 | 0.08 | 74 | 1005.7 | |
| 20260503023016 | 17 | 0.0 | 4.8 | 0.00 | 0.08 | 0.08 | 74 | 1005.9 | |
| 20260503022036 | 17 | 232 | 3.2 | 11.3 | 0.00 | 0.08 | 0.08 | 73 | 1006.3 |
| 20260503021037 | 17 | 225 | 3.2 | 8.0 | 0.00 | 0.08 | 0.08 | 73 | 1006.4 |
| 20260503020036 | 18 | 227 | 4.8 | 9.7 | 0.00 | 0.08 | 0.08 | 74 | 1006.4 |
| 20260503015015 | 18 | 227 | 3.2 | 6.4 | 0.00 | 0.08 | 0.08 | 73 | 1005.9 |
| 20260503014036 | 18 | 225 | 3.2 | 4.8 | 0.00 | 0.08 | 0.08 | 72 | 1005.4 |
| 20260503013016 | 18 | 225 | 3.2 | 4.8 | 0.00 | 0.08 | 0.08 | 70 | 1005.4 |
| 20260503012015 | 19 | 225 | 3.2 | 4.8 | 0.00 | 0.08 | 0.08 | 67 | 1005.4 |
| 20260503011018 | 20 | 0.0 | 0.0 | 0.00 | 0.08 | 0.08 | 66 | 1005.4 | |
| 20260503010015 | 20 | 0.0 | 0.0 | 0.00 | 0.08 | 0.08 | 65 | 1005.4 | |
| 20260503005018 | 20 | 360 | 0.0 | 3.2 | 0.00 | 0.08 | 0.08 | 64 | 1005.3 |
| 20260503004015 | 20 | 360 | 0.0 | 1.6 | 0.00 | 0.08 | 0.08 | 64 | 1005.1 |
| 20260503003015 | 20 | 335 | 0.0 | 3.2 | 0.00 | 0.08 | 0.08 | 64 | 1005.1 |
| 20260503002036 | 20 | 238 | 1.6 | 3.2 | 0.00 | 0.08 | 0.08 | 63 | 1005.1 |
| 20260503001058 | 20 | 22 | 0.0 | 3.2 | 0.00 | 0.08 | 0.08 | 63 | 1005.1 |
| 20260503000016 | 20 | 337 | 0.0 | 3.2 | 0.00 | 0.08 | 0.08 | 63 | 1005.2 |
| 20260502235018 | 20 | 292 | 1.6 | 4.8 | 0.00 | 0.08 | 0.08 | 62 | 1005.4 |
| 20260502234036 | 20 | 358 | 0.0 | 4.8 | 0.00 | 0.08 | 0.08 | 63 | 1005.5 |
| 20260502233016 | 20 | 0.0 | 0.0 | 0.00 | 0.08 | 0.08 | 63 | 1005.7 | |
| 20260502232016 | 20 | 337 | 0.0 | 1.6 | 0.00 | 0.08 | 0.08 | 63 | 1005.7 |
| 20260502231016 | 20 | 360 | 0.0 | 4.8 | 0.00 | 0.08 | 0.08 | 62 | 1005.9 |
| 20260502230015 | 20 | 233 | 0.0 | 4.8 | 0.00 | 0.08 | 0.08 | 59 | 1006.1 |
| 20260502225016 | 21 | 360 | 1.6 | 4.8 | 0.00 | 0.08 | 0.08 | 58 | 1006.1 |
| 20260502224015 | 21 | 47 | 0.0 | 4.8 | 0.00 | 0.08 | 0.08 | 60 | 1006.4 |
| 20260502223015 | 20 | 22 | 1.6 | 6.4 | 0.00 | 0.08 | 0.08 | 60 | 1006.4 |
| 20260502222015 | 21 | 95 | 0.0 | 6.4 | 0.00 | 0.08 | 0.08 | 59 | 1006.6 |
| 20260502221015 | 20 | 342 | 0.0 | 3.2 | 0.00 | 0.08 | 0.08 | 60 | 1006.8 |
| 20260502220016 | 20 | 33 | 1.6 | 4.8 | 0.00 | 0.08 | 0.08 | 60 | 1006.8 |
| 20260502215016 | 20 | 359 | 1.6 | 8.0 | 0.00 | 0.08 | 0.08 | 61 | 1007.1 |
| 20260502214015 | 18 | 3 | 1.6 | 4.8 | 0.00 | 0.08 | 0.08 | 66 | 1007.4 |
| 20260502213035 | 18 | 39 | 0.0 | 3.2 | 0.00 | 0.08 | 0.08 | 66 | 1007.4 |
| 20260502212016 | 18 | 227 | 0.0 | 4.8 | 0.00 | 0.08 | 0.08 | 66 | 1007.5 |
| 20260502211016 | 18 | 73 | 1.6 | 6.4 | 0.00 | 0.08 | 0.08 | 66 | 1007.7 |
| 20260502210035 | 18 | 21 | 3.2 | 9.7 | 0.00 | 0.08 | 0.08 | 65 | 1007.8 |
| 20260502205016 | 18 | 337 | 1.6 | 6.4 | 0.00 | 0.08 | 0.08 | 67 | 1008.0 |
| 20260502204016 | 17 | 351 | 1.6 | 4.8 | 0.00 | 0.08 | 0.08 | 69 | 1008.1 |
| 20260502203016 | 17 | 36 | 1.6 | 3.2 | 0.00 | 0.08 | 0.08 | 71 | 1008.4 |
| 20260502202016 | 16 | 278 | 1.6 | 3.2 | 0.00 | 0.08 | 0.08 | 74 | 1008.5 |
| 20260502201016 | 16 | 342 | 1.6 | 8.0 | 0.00 | 0.08 | 0.08 | 76 | 1008.7 |
| 20260502200016 | 15 | 360 | 1.6 | 4.8 | 0.00 | 0.08 | 0.08 | 78 | 1008.9 |
| 20260502195017 | 14 | 3 | 1.6 | 6.4 | 0.03 | 0.08 | 0.08 | 80 | 1008.8 |
| 20260502194017 | 14 | 221 | 0.0 | 6.4 | 0.03 | 0.08 | 0.08 | 82 | 1009.0 |
| 20260502193016 | 13 | 260 | 1.6 | 8.0 | 0.03 | 0.08 | 0.08 | 84 | 1009.1 |
| 20260502192016 | 12 | 22 | 0.0 | 3.2 | 0.05 | 0.08 | 0.08 | 85 | 1009.2 |
| 20260502191016 | 12 | 10 | 1.6 | 6.4 | 0.08 | 0.08 | 0.08 | 87 | 1009.4 |
| 20260502190016 | 12 | 45 | 0.0 | 1.6 | 0.08 | 0.08 | 0.08 | 86 | 1009.6 |